sat.trackr.live / text

‹ back to catalog

INNOSAT 16 (RS92S7)

NORAD 64878 · 2025-155C

PAYLOAD ACTIVE UNKNOWN

§ Identity

Operator
Country
MALA
Launch date
2025-07-25
Launch site
VOSTO
Launch vehicle
Mass (kg)
RCS (m²)

Purposes: comms

External: N2YO · Heavens-Above · Gunter

§ Orbital elements

Epoch: 2026-05-25T04:08:28.459968Z

Period
94.42 min
Inclination
97.4548°
Eccentricity
0.0008492
Mean motion
15.25169182 rev/d
Perigee alt
484.4 km
Apogee alt
496.1 km
Semi-major
6,868.4 km
B*
2.1681e-4
RAAN
112.3806°
Arg perigee
266.6603°
Mean anomaly
93.3664°
Rev number
7,716

§ Raw data

INNOSAT 16 (RS92S7)1 64878U 25155C   26145.17255162  .00005369  00000+0  21681-3 0  99912 64878  97.4548 112.3806 0008492 266.6603  93.3664 15.25169182 77167

JSON: /api/v1/satellites/64878 · /tle

For live sub-satellite position, see the globe view (requires WebGL).

§ Visibility from observer

Set your observer location to see the next 7 days of passes ≥ 10°. The values pass through the URL so the page stays shareable.

No JS? Fill the form by hand. The geolocation button needs JavaScript.

§ Radio — SatNOGS DB

ModeDescriptionDownlinkUplink
GFSK Mode U - GFSK9k6 - AX.25 Beacon and Ham Payload (Geoscan framing) 435.830 MHz

1 transmitter · refreshed weekly from db.satnogs.org